Regional Weather Roundup
Issued by NWS

Home | Current Version | Previous Version | Text Only | Print | Product List | Glossary On
Versions: 1 2 3 4 5 6 7 8 9 10 11 12 13 14 15 16 17 18 19 20 21 22 23 24 25 26 27 28 29 30 31 32 33 34 35 36 37 38 39 40 41 42 43 44 45 46 47 48 49 50
863
ASUS43 KTOP 250359
RWRKS

WEATHER ROUNDUP FOR KANSAS
NATIONAL WEATHER SERVICE GOODLAND KS
1100 PM CDT MON APR 24 2017

NOTE:  "FAIR" INDICATES FEW OR NO CLOUDS BELOW 12,000 FEET WITH NO
SIGNIFICANT WEATHER AND/OR OBSTRUCTIONS TO VISIBILITY.

KSZ001>006-013>018-027>032-041>047-250500-
NORTHWEST KANSAS

CITY           SKY/WX    TMP DP  RH WIND       PRES   REMARKS
GOODLAND       CLOUDY    55  43  63 E8        29.51S
HAYS           CLOUDY    63  52  67 SE6       29.51R
HILL CITY      CLOUDY    61  46  57 E9        29.51F
RUSSELL        CLOUDY    64  51  62 SE13      29.49S
$$

KSZ061>065-074>080-084>089-250500-
SOUTHWEST KANSAS

CITY           SKY/WX    TMP DP  RH WIND       PRES   REMARKS
DODGE CITY     CLOUDY    62  49  62 SE14      29.45F
ELKHART          N/A     58  41  53 NW8         N/A
GARDEN CITY    CLOUDY    64  48  56 E13       29.43F
GREAT BEND     CLOUDY    64  52  64 SE12      29.50F
$$

KSZ066>073-081>083-090>101-250500-
SOUTHEAST KANSAS

CITY           SKY/WX    TMP DP  RH WIND       PRES   REMARKS
CHANUTE        CLOUDY    61  47  59 S12       29.61F
COFFEYVILLE    CLEAR     60  48  64 S9        29.63F
HUTCHINSON     CLOUDY    64  52  64 SE10      29.52F
MEDICINE LODGE   N/A     64  50  60 SE14G22   29.50F
NEWTON         CLOUDY    60  50  69 SE12      29.56S
PARSONS        CLOUDY    62  46  55 S6        29.64F
WICHITA INTL   CLOUDY    64  50  60 SE12      29.54F
WICHITA JABRA  CLOUDY    64  49  57 S13       29.56S
WINFIELD       CLOUDY    63  48  58 SE9       29.58F
$$

KSZ007>012-019>026-033>040-048>060-102>105-250500-
NORTHEAST KANSAS

CITY           SKY/WX    TMP DP  RH WIND       PRES   REMARKS
CONCORDIA      PTCLDY    60  53  77 SW6       29.54R
EMPORIA        CLOUDY    62  49  62 S15       29.58S
LAWRENCE       PTCLDY    62  47  57 SE8       29.58F
MANHATTAN      CLOUDY    67  48  50 S10G21    29.53S
OLATHE IND     CLOUDY    63  44  50 S10       29.61F
OLATHE EXE     PTCLDY    60  45  57 S7        29.61F
SALINA         CLOUDY    65  52  62 S10       29.52S
TOPEKA BILLARD PTCLDY    64  47  53 S10       29.56F
TOPEKA FORBES  CLOUDY    64  46  52 S13       29.57S
$$




USA.gov is the U.S. government's official web portal to all federal, state and local government web resources and services.